www.pogodaiklimat.ru

Погода и климат >> Архив погоды >> Бразилия >> Сан-Паулу >> Ибитинга


ПОГОДА в Ибитинге

  • Прогноз погоды в Ибитинге
  • Монитор погоды в Ибитинге

АРХИВ ПОГОДЫ в Ибитинге

Время (UTC), дата Ветер
(напр.,м/с)
 
Видим.   Явления Облачность Т
(С)
Тd
(С)
f
(%)
Тe
(С)
Тes
(С)
Комфортность P
(гПа)
Po
(гПа)
Тmin
(С)
Tmax
(С)
R
(мм)
R24
(мм)
S
(см)
22 15.04 СВ 1
{2}
н/о н/о +24.7 +18.3 68 +29 +29 душно 1013.7 957.5
23 15.04 С 1
{2}
н/о н/о +23.3 +18.9 76 +30 +30 очень
душно
1014.6 958.1
00 16.04 С 1
{2}
н/о н/о +22.6 +19.3 82 +29 +29 очень
душно
1015.2 958.6
01 16.04
{1}
н/о н/о +21.8 +19.5 87 1016.1 959.3
02 16.04
{2}
н/о н/о +21.5 +19.5 88 1016.4 959.5
03 16.04 штиль 0
{2}
н/о н/о +20.9 +19.1 89 +25 +25 комфорт 1016.5 959.5
04 16.04
{2}
н/о н/о +20.5 +19.1 92 1016.3 959.2
05 16.04 С 1
{1}
н/о н/о +20.2 +18.9 92 +25 +25 комфорт 1015.6 958.5
06 16.04 С 1
{2}
н/о н/о +20.3 +19.2 93 +26 +26 душно 1014.9 957.8
07 16.04 С 1
{2}
н/о н/о +20.1 +18.8 92 +25 +25 комфорт 1014.6 957.5
08 16.04 штиль 0
{1}
н/о н/о +19.9 +18.7 93 +23 +23 комфорт 1014.8 957.7
09 16.04 СЗ 1
{1}
н/о н/о +19.8 +18.5 92 +24 +24 комфорт 1015.3 958.1
10 16.04 штиль 0
{1}
н/о н/о +20.1 +18.8 92 +23 +23 комфорт 1016.4 959.2
11 16.04 штиль 0
{1}
н/о н/о +22.1 +19.9 87 +28 +28 душно 1016.4 959.6
12 16.04 З 1
{1}
н/о н/о +24.6 +20.9 80 +31 +31 очень
душно
1016.0 959.7
13 16.04 З 1
{2}
н/о н/о +26.3 +20.6 71 +33 +33 очень
душно
1015.3 959.3
14 16.04 ЮЗ 1
{2}
н/о н/о +28.1 +20.8 65 +35 +35 очень
душно
1014.1 958.5
15 16.04 Ю 1
{3}
н/о н/о +28.6 +20.2 60 +35 +35 очень
душно
1013.3 957.9
16 16.04 ЮВ 1
{3}
н/о н/о +29.2 +20.9 61 +36 +36 очень
душно
1012.5 957.2
17 16.04 ЮВ 2
{4}
н/о н/о +30.2 +20.5 56 +37 +37 очень
душно
1011.1 956.1
18 16.04 ЮВ 1
{3}
н/о н/о +29.8 +20.3 57 +37 +37 очень
душно
1010.2 955.1
19 16.04 ЮВ 1
{3}
н/о н/о +30.0 +19.4 53 +36 +36 очень
душно
1009.6 954.6
20 16.04 ЮВ 1
{3}
н/о н/о +28.9 +20.0 59 +35 +35 очень
душно
1009.6 954.4
21 16.04 ЮВ 1
{2}
н/о н/о +27.4 +19.7 63 +33 +33 очень
душно
1010.4 954.9
22 16.04 ЮВ 1
{2}
н/о н/о +26.1 +19.8 68 +32 +32 очень
душно
1010.9 955.1
23 16.04 В 1
{2}
н/о н/о +25.3 +20.0 72 +31 +31 очень
душно
1011.3 955.4
00 17.04 ЮВ 1
{2}
н/о н/о +25.3 +19.6 71 +31 +31 очень
душно
1012.1 956.1
01 17.04 Ю 1
{2}
н/о н/о +23.6 +20.1 81 +29 +29 душно 1012.9 956.6
02 17.04 Ю 1
{2}
н/о н/о +23.7 +19.7 78 +29 +29 душно 1013.2 956.9
03 17.04 штиль 0
{2}
н/о н/о +21.4 +19.6 89 +26 +26 душно 1013.4 956.6
04 17.04 штиль 0
{1}
н/о н/о +20.8 +19.2 91 +25 +25 комфорт 1013.1 956.2
05 17.04 Ю 1
{2}
н/о н/о +20.5 +19.0 91 +26 +26 душно 1012.4 955.5
06 17.04 штиль 0
{2}
н/о н/о +20.3 +19.0 92 +24 +24 комфорт 1011.9 955.0
07 17.04 штиль 0
{1}
н/о н/о +20.2 +19.0 93 +24 +24 комфорт 1012.1 955.2
08 17.04 штиль 0
{1}
н/о н/о +20.5 +19.4 93 +24 +24 комфорт 1012.1 955.2
09 17.04 штиль 0
{1}
н/о н/о +19.6 +18.6 94 +22 +22 комфорт 1012.9 955.8
10 17.04 штиль 0
{2}
н/о н/о +19.9 +18.9 94 +23 +23 комфорт 1013.0 956.0
11 17.04 штиль 0
{1}
н/о н/о +21.6 +20.5 93 +27 +27 душно 1013.2 956.5
12 17.04 СВ 1
{2}
н/о н/о +21.7 +20.1 91 +27 +27 душно 1013.9 957.2
13 17.04 В 1
{2}
н/о н/о +23.6 +20.3 82 +29 +29 душно 1013.9 957.5
14 17.04 В 1
{2}
н/о н/о +25.0 +20.5 76 +31 +31 очень
душно
1013.6 957.5
15 17.04 В 1
{2}
н/о н/о +27.2 +21.2 70 +34 +34 очень
душно
1012.6 956.9
16 17.04 В 1
{3}
н/о н/о +28.6 +19.7 59 +35 +35 очень
душно
1011.5 956.2
17 17.04 В 1
{3}
н/о н/о +29.0 +17.5 50 +33 +33 очень
душно
1010.6 955.4
18 17.04 ЮВ 1
{2}
н/о н/о +30.3 +17.9 47 +35 +35 очень
душно
1009.5 954.6
19 17.04 Ю 1
{3}
н/о н/о +29.4 +18.6 52 +34 +34 очень
душно
1009.3 954.2
20 17.04 Ю 1
{2}
н/о н/о +27.0 +18.6 60 +32 +32 очень
душно
1010.1 954.5
21 17.04 ЮВ 1
{1}
н/о н/о +26.9 +17.7 57 +31 +31 душно 1010.1 954.5
22 17.04 Ю 1
{1}
н/о н/о +26.1 +17.4 59 +30 +30 душно 1010.6 954.9
23 17.04 Ю 1
{2}
н/о н/о +25.5 +16.9 59 +29 +29 душно 1011.7 955.8
00 18.04 В 1
{3}
н/о н/о +24.5 +17.4 65 +29 +29 душно 1012.4 956.3
01 18.04 В 1
{2}
н/о н/о +23.7 +17.1 67 +28 +28 душно 1012.8 956.5
02 18.04 штиль 0
{2}
н/о н/о +22.5 +16.9 71 +27 +27 душно 1013.0 956.5
03 18.04 штиль 0
{1}
н/о н/о +22.1 +17.5 75 +27 +27 душно 1012.9 956.3
04 18.04 штиль 0
{1}
н/о н/о +21.2 +17.3 78 +25 +25 комфорт 1012.8 956.0
05 18.04 штиль 0
{1}
н/о н/о +19.2 +16.5 84 +21 +21 комфорт 1012.8 955.7
06 18.04 штиль 0 н/о н/о +19.0 +17.7 92 +20 +20 1012.7 955.5
07 18.04 штиль 0
{2}
н/о н/о +17.9 +17.0 94 +18 +18 1013.1 955.7
08 18.04 штиль 0
{1}
н/о н/о +17.7 +16.3 92 +18 +18 1013.2 955.7
09 18.04 штиль 0
{1}
н/о н/о +16.5 +15.4 93 +16 +16 1013.6 955.9
10 18.04 штиль 0
{1}
н/о н/о +16.9 +16.0 94 +17 +17 1014.4 956.7 0.2
11 18.04 штиль 0
{1}
н/о н/о +17.4 +16.5 94 +17 +17 1015.0 957.4
12 18.04 штиль 0
{2}
н/о н/о +20.6 +17.3 81 +24 +24 комфорт 1015.0 958.0
13 18.04 С 1
{3}
н/о н/о +23.3 +17.4 69 +29 +29 душно 1015.0 958.5
14 18.04 штиль 0
{2}
н/о н/о +26.2 +16.7 56 +30 +30 душно 1014.3 958.4
15 18.04 В 2
{3}
н/о н/о +27.5 +13.3 42 +29 +29 жарко 1013.4 957.8
16 18.04 В 1
{3}
н/о н/о +28.9 +15.2 43 +31 +31 жарко 1012.2 956.9
17 18.04 В 2
{4}
н/о н/о +29.1 +11.4 33 +30 +30 жарко 1011.5 956.2
18 18.04 В 2
{4}
н/о н/о +29.8 +10.7 31 +30 +30 жарко 1010.6 955.5
19 18.04 В 2
{4}
н/о н/о +29.2 +8.1 27 +29 +29 жарко 1010.3 955.1
20 18.04 В 1
{3}
н/о н/о +27.9 +9.7 32 +28 +28 жарко 1010.7 955.3
21 18.04 СВ 1
{2}
н/о н/о +25.3 +10.6 40 +26 +26 жарко 1011.1 955.2
22 18.04 С 1
{2}
н/о н/о +23.4 +11.0 46 +26 +26 жарко 1011.8 955.5
23 18.04 СВ 1
{3}
н/о н/о +21.1 +9.8 48 +22 +22 комфорт 1012.8 956.0
00 19.04 СВ 1
{1}
н/о н/о +20.9 +10.2 50 +24 +24 комфорт 1013.7 956.8
01 19.04 штиль 0
{1}
н/о н/о +19.1 +11.7 62 +20 +20 1014.7 957.4
02 19.04 штиль 0
{1}
н/о н/о +19.2 +10.9 59 +20 +20 1014.6 957.4
03 19.04 штиль 0
{1}
н/о н/о +17.6 +11.8 69 +18 +18 1014.9 957.3
04 19.04 штиль 0
{1}
н/о н/о +15.5 +12.7 83 +15 +15 1015.1 957.1
05 19.04 С 1
{1}
н/о н/о +14.7 +12.8 88 +16 +16 1014.7 956.6
06 19.04 штиль 0
{1}
н/о н/о +14.3 +12.5 89 +14 +14 1015.1 956.9
07 19.04 штиль 0
{1}
н/о н/о +14.4 +12.1 86 +14 +14 1014.9 956.7
08 19.04 С 1
{1}
н/о н/о +13.2 +11.7 91 +14 +14 1015.2 956.8
09 19.04 штиль 0
{1}
н/о н/о +13.7 +12.4 92 +13 +13 1015.9 957.5
10 19.04 штиль 0 н/о н/о +13.7 +12.5 92 +13 +13 1016.8 958.4
11 19.04 штиль 0
{1}
н/о н/о +16.6 +13.8 84 +16 +16 1016.8 958.9
12 19.04 С 1
{2}
н/о н/о +19.4 +15.3 77 +23 +23 комфорт 1016.7 959.4
13 19.04 С 1
{2}
н/о н/о +22.3 +15.9 67 +26 +26 жарко 1016.7 959.9
14 19.04 С 1
{2}
н/о н/о +25.4 +16.5 58 +29 +29 душно 1015.9 959.7
15 19.04 СВ 1
{2}
н/о н/о +26.8 +12.5 41 +28 +28 жарко 1014.7 958.9
16 19.04 ЮВ 1
{3}
н/о н/о +28.1 +12.8 39 +30 +30 жарко 1013.8 958.2
17 19.04 СВ 1
{3}
н/о н/о +28.0 +11.9 37 +29 +29 жарко 1013.0 957.5
18 19.04 В 1
{3}
н/о н/о +28.5 +12.4 37 +30 +30 жарко 1012.3 956.9
19 19.04 СВ 1
{2}
н/о н/о +28.3 +12.3 37 +29 +29 жарко 1011.7 956.3
20 19.04 штиль 0
{2}
н/о н/о +26.6 +13.4 44 +29 +29 жарко 1012.0 956.3
21 19.04 штиль 0
{1}
н/о н/о +23.9 +13.5 52 +26 +26 жарко 1012.4 956.2
22 19.04 СЗ 1
{2}
н/о н/о +23.1 +11.7 49 +26 +26 жарко 1012.8 956.4
23 19.04 СЗ 1
{2}
н/о н/о +22.4 +10.7 47 +24 +24 комфорт 1013.8 957.2
00 20.04 штиль 0
{2}
н/о н/о +20.1 +12.6 62 +22 +22 комфорт 1015.2 958.1
01 20.04 штиль 0 н/о н/о +20.0 +12.8 63 +22 +22 комфорт 1015.5 958.4
02 20.04 штиль 0
{1}
н/о н/о +16.9 +14.1 84 +17 +17 1016.2 958.4
03 20.04 штиль 0
{1}
н/о н/о +17.8 +13.7 77 +18 +18 1015.6 958.0
04 20.04 СЗ 1
{2}
н/о н/о +16.7 +14.0 84 +18 +18 1015.7 957.9
05 20.04 С 1
{1}
н/о н/о +15.8 +13.9 88 +17 +17 1015.4 957.5
06 20.04 штиль 0
{2}
н/о н/о +16.4 +14.0 86 +16 +16 1015.3 957.5
07 20.04 штиль 0
{1}
н/о н/о +15.5 +13.7 89 +15 +15 1015.4 957.4
08 20.04 СЗ 1
{1}
н/о н/о +14.9 +13.5 91 +16 +16 1015.4 957.3
09 20.04 штиль 0
{1}
н/о н/о +14.4 +13.1 92 +14 +14 1016.7 958.4
10 20.04 штиль 0 н/о н/о +14.8 +13.3 91 +14 +14 1017.2 959.0
11 20.04 штиль 0
{1}
н/о н/о +17.3 +14.7 85 +17 +17 1017.3 959.5
12 20.04 СЗ 1
{2}
н/о н/о +20.7 +16.3 76 +26 +26 душно 1016.9 959.8
13 20.04 штиль 0
{1}
н/о н/о +24.0 +16.9 65 +28 +28 душно 1016.2 959.8
14 20.04 ЮЗ 1
{2}
н/о н/о +26.7 +15.0 49 +29 +29 жарко 1015.0 959.1
15 20.04 СЗ 1
{2}
н/о н/о +28.4 +12.9 38 +30 +30 жарко 1013.8 958.3
16 20.04 штиль 0
{2}
н/о н/о +29.4 +14.1 39 +31 +31 жарко 1012.9 957.6
17 20.04 В 1
{3}
н/о н/о +30.5 +13.5 35 +32 +32 жарко 1011.9 956.9
18 20.04 СВ 1
{2}
н/о н/о +29.9 +13.2 36 +31 +31 жарко 1011.3 956.2
19 20.04 СВ 1
{2}
н/о н/о +29.8 +12.0 33 +30 +30 жарко 1011.4 956.3
20 20.04 штиль 0
{2}
н/о н/о +28.2 +14.5 43 +30 +30 жарко 1011.5 956.1
21 20.04 штиль 0
{1}
н/о н/о +25.5 +13.9 49 +28 +28 жарко 1012.1 956.2
22 20.04 штиль 0
{1}
н/о н/о +25.9 +12.9 45 +28 +28 жарко 1012.5 956.6
23 20.04 штиль 0
{1}
н/о н/о +24.3 +13.7 52 +27 +27 жарко 1013.2 957.0
00 21.04 штиль 0
{1}
н/о н/о +22.9 +13.6 56 +26 +26 жарко 1013.9 957.4
01 21.04 штиль 0
{1}
н/о н/о +21.7 +15.4 67 +25 +25 комфорт 1014.4 957.6
02 21.04 штиль 0
{1}
н/о н/о +20.1 +16.0 77 +22 +22 комфорт 1014.9 957.8
03 21.04 штиль 0
{1}
н/о н/о +18.6 +15.7 83 +19 +19 1015.1 957.7
04 21.04 штиль 0
{1}
н/о н/о +18.3 +15.7 85 +19 +19 1014.9 957.5
05 21.04 СЗ 1
{1}
н/о н/о +18.4 +15.3 82 +21 +21 комфорт 1014.0 956.6
06 21.04 СЗ 1
{1}
н/о н/о +17.9 +15.6 86 +20 +20 1013.6 956.2
07 21.04 штиль 0
{1}
н/о н/о +17.8 +15.3 85 +18 +18 1013.6 956.1
08 21.04 штиль 0
{1}
н/о н/о +16.7 +14.9 89 +17 +17 1013.8 956.1
09 21.04 штиль 0
{1}
н/о н/о +16.8 +14.9 89 +17 +17 1014.1 956.4
10 21.04 штиль 0
{1}
н/о н/о +16.2 +14.8 91 +16 +16 1014.8 957.0
11 21.04 С 1
{1}
н/о н/о +18.6 +16.4 87 +21 +21 комфорт 1014.7 957.3
12 21.04 С 1
{1}
н/о н/о +21.4 +16.6 74 +25 +25 комфорт 1015.0 958.1
13 21.04 штиль 0
{2}
н/о н/о +24.6 +15.4 57 +28 +28 душно 1014.9 958.6
14 21.04 ЮЗ 1
{2}
н/о н/о +27.5 +15.5 48 +30 +30 жарко 1013.7 958.0
15 21.04 Ю 1
{2}
н/о н/о +29.5 +14.9 41 +32 +32 душно 1012.3 957.1
16 21.04 З 1
{2}
н/о н/о +30.7 +13.6 35 +32 +32 жарко 1011.4 956.4
17 21.04 штиль 0
{2}
н/о н/о +31.0 +12.8 33 +32 +32 жарко 1010.4 955.5
18 21.04 З 1
{2}
н/о н/о +31.3 +12.8 32 +32 +32 жарко 1009.9 955.1
19 21.04 З 1
{2}
н/о н/о +30.3 +14.4 38 +32 +32 жарко 1009.7 954.8
20 21.04 штиль 0
{2}
н/о н/о +27.7 +16.9 52 +32 +32 очень
душно
1010.3 954.9
21 21.04 штиль 0 н/о н/о +25.8 +16.4 56 +29 +29 душно 1010.7 954.9
22 21.04 штиль 0
{1}
н/о н/о +25.0 +15.8 57 +28 +28 жарко 1011.2 955.2
23 21.04 штиль 0
{1}
н/о н/о +25.1 +17.3 62 +29 +29 душно 1012.0 956.0
00 22.04 СЗ 1
{1}
н/о н/о +22.6 +17.0 71 +27 +27 душно 1012.9 956.4
01 22.04 штиль 0
{1}
н/о н/о +22.2 +16.7 71 +27 +27 душно 1013.0 956.4
02 22.04 З 1
{2}
н/о н/о +20.9 +16.6 76 +26 +26 душно 1013.0 956.2
03 22.04 штиль 0
{2}
н/о н/о +19.3 +16.2 82 +21 +21 комфорт 1013.1 956.0
04 22.04 С 1
{1}
н/о н/о +19.2 +15.9 81 +22 +22 комфорт 1012.7 955.6
05 22.04 СЗ 1
{2}
н/о н/о +18.6 +15.9 84 +21 +21 комфорт 1012.3 955.1
06 22.04 штиль 0
{2}
н/о н/о +18.2 +15.7 85 +18 +18 1012.2 954.9
07 22.04 штиль 0
{1}
н/о н/о +17.8 +15.2 85 +18 +18 1012.2 954.8
08 22.04 штиль 0
{1}
н/о н/о +16.5 +15.1 91 +16 +16 1013.0 955.3
09 22.04 СЗ 1
{2}
н/о н/о +16.3 +15.0 92 +17 +17 1013.3 955.6
10 22.04 С 1
{1}
н/о н/о +16.3 +15.0 92 +18 +18 1014.2 956.4
11 22.04 С 1
{1}
н/о н/о +19.3 +16.5 84 +23 +23 комфорт 1014.0 956.8
12 22.04 С 1
{2}
н/о н/о +22.6 +17.8 74 +28 +28 душно 1014.0 957.4
13 22.04 З 1
{2}
н/о н/о +26.5 +16.8 55 +30 +30 душно 1013.2 957.4
14 22.04 Ю 1
{2}
н/о н/о +29.3 +17.7 50 +34 +34 очень
душно
1012.7 957.4
15 22.04 ЮВ 1
{3}
н/о н/о +30.3 +16.6 44 +34 +34 очень
душно
1012.1 957.0
16 22.04 ЮВ 1
{3}
н/о н/о +30.9 +15.6 40 +34 +34 душно 1011.3 956.4
17 22.04 Ю 1
{2}
н/о н/о +31.7 +14.8 36 +34 +34 душно 1010.5 955.8
18 22.04 ЮВ 1
{2}
н/о н/о +30.9 +14.4 37 +33 +33 душно 1010.2 955.3
19 22.04 В 1
{3}
н/о н/о +30.1 +14.6 39 +32 +32 жарко 1010.0 955.0
20 22.04 В 1
{3}
н/о н/о +28.5 +16.3 48 +32 +32 душно 1010.7 955.4
21 22.04 СВ 1
{3}
н/о н/о +26.3 +16.9 56 +30 +30 душно 1011.3 955.6

 

Местоположение метеостанции Ибитинга (Сан-Паулу, Бразилия): широта -21.86 долгота -48.80 высота над уровнем моря 494 м.

В архиве по умолчанию представлена погода в Ибитинге за последнюю неделю. Архивные данные за месяц целиком и за предыдущие месяцы, начиная с января 2011 года, Вы можете получить, выбрав интересующий диапазон дат из раскрывающегося списка и нажав кнопку "Ввод!".


*Определитесь, кто Вы:
робот инопланетянин человек

Внимание! Время в таблицах - всемирное. Для получения местного времени необходимо прибавить поправку, которая равна -3 ч.

Смотрите также архив погоды в соседних городах и на ближайших метеорологических станциях:

Погода в Бауру (Сан-Паулу, Бразилия) (58 км)
Погода в Барра-Боните (Сан-Паулу, Бразилия) (73 км)
Погода в Ариранье (Сан-Паулу, Бразилия) (81 км)
Погода в Катандуве (Сан-Паулу, Бразилия) (83 км)
Погода в Прадополисе (Сан-Паулу, Бразилия) (92 км)
Погода в Сан-Карлусе (Сан-Паулу, Бразилия) (96 км)
Погода в Сан-Карлосе (Сан-Паулу, Бразилия) (96 км)
Погода в Линсе (Сан-Паулу, Бразилия) (98 км)
Погода в Аваре (Сан-Паулу, Бразилия) (139 км)
Погода в Хосе-Бонифацио (Сан-Паулу, Бразилия) (145 км)

Пояснения к столбцам:

Ветер - указаны скорость ветра в м/с - средняя за 10 мин, порывы в срок и между сроками (в фигурных скобках) и направление, откуда дует ветер: С - северный, СВ - северо-восточный, В - восточный, ЮВ - юго-восточный, Ю - южный, ЮЗ - юго-западный, З - западный, СЗ - северо-западный.
Видимость - горизонтальная дальность видимости в метрах или километрах. При видимости от 1 до 10 км при отсутствии осадков обычно наблюдается дымка, при ухудшении видимости до 1 км и менее - туман. В сухую погоду видимость может ухудшаться дымом, пылью или мглою.
Явления - указаны атмосферные явления, наблюдавшиеся в срок или в последний час перед сроком; фигурными скобками обозначены явления, наблюдавшиеся между сроками (за 1-3 часа до срока); квадратными скобками обозначены град или гололедные отложения с указанием их диаметра в мм.
Облачность - указаны через наклонную черту общая и нижняя облачность в баллах и высота нижней границы облаков в метрах; квадратными скобками обозначены формы облаков: Ci - перистые, Cs - перисто-слоистые, Cc - перисто-кучевые, Ac - высококучевые, As - высокослоистые, Sc - слоисто-кучевые, Ns - слоисто-дождевые, Cu - кучевые, Cb - кучево-дождевые. Подробнее классификацию облаков см. в Атласе облаков (PDF).
T - Температура воздуха - температура, измеренная на высоте 2 м над землей.
Td - Температура точки росы - температура, при понижении до которой содержащийся в воздухе водяной пар достигнет насыщения.
f - Относительная влажность воздуха - влажноcть воздуха, измеренная на высоте 2 м над землей.
Te - Эффективная температура - температура, которую ощущает одетый по сезону человек в тени. Характеристика душности погоды. При расчете учитывается влияние влажности воздуха и скорости ветра на теплоощущения человека.
Tes - Эффективная температура на солнце - температура, которую ощущает человек, с поправкой на солнечный нагрев. Характеристика знойности погоды. Зависит от высоты солнца над горизонтом, облачности и скорости ветра. Ночью, в пасмурную погоду, а также при ветре 12 м/с и более поправка равна нулю.
P - Атмосферное давление - приведенное к уровню моря атмосферное давление.
Po - Атмосферное давление - измеренное на уровне метеостанции атмосферное давление.
Tmin - Минимальная температура - минимум температуры воздуха на высоте 2 м над землей.
Tmax - Максимальная температура - максимум температуры воздуха на высоте 2 м над землей.
R - Количество осадков - Количество выпавших осадков за период времени, мм. При наведении курсора мыши на число - период времени, за который выпало указанное количество осадков.
R24 - Количество осадков - Количество выпавших осадков за 24 часа, мм.
S - Снежный покров - Высота снежного покрова, см. При наведении курсора мыши на число - состояние снежного покрова и степень покрытия местности в баллах.